time_stamp(utc),avg(mph),gust(mph),direction(deg),12m_air_temp(f),sonic_u(cm/s),sonic_v(cm/s),sonic_w(cm/s),pressure,2m_air_temp(f),pyranometer(W/m^2)
"2020-02-08 00:00:53+00",23.2,25.2,,40.4,-2614,3600,-1554,1000.61,39.7,0
"2020-02-08 00:05:53+00",23.6,25.6,,40.4,-2386,3018,-1284,1000.74,39.7,0
"2020-02-08 00:10:53+00",28.5,33.5,,40.9,-2608,3034,-1278,1000.87,39.9,0
"2020-02-08 00:15:53+00",22.6,26.6,,40.9,-2456,2967,-1358,1001.13,40.1,0
"2020-02-08 00:20:53+00",27.7,30.7,,40.9,-2605,2975,-1327,1001.23,40.3,0
"2020-02-08 00:25:53+00",25.3,28.3,,40.8,-2781,3539,-1628,1001.43,40.3,0
"2020-02-08 00:30:53+00",21.5,27.5,,40.7,-1947,2315,-1008,1001.58,40.3,0
"2020-02-08 00:35:53+00",21.4,26.4,,40.7,-2202,2761,-1245,1001.71,40.3,0
"2020-02-08 00:40:53+00",24.2,30.2,,40.7,-2143,2731,-1207,1001.83,40.2,0
"2020-02-08 00:45:53+00",21.9,26.9,,40.6,-2412,2956,-1364,1002.01,40.2,0
"2020-02-08 00:50:53+00",25.3,28.3,,40.6,-2871,3542,-1643,1002.14,40.2,0
"2020-02-08 00:55:53+00",23.1,26.1,,40.7,-2723,3447,-1590,1002.2,40.3,0
"2020-02-08 01:10:53+00",27.7,32.7,,40.7,-2563,3015,-1214,1002.46,40.4,0
"2020-02-08 01:20:53+00",25.5,31.5,,40.6,-2994,3908,-1747,1002.69,40.3,0
"2020-02-08 01:25:53+00",27.3,33.3,,40.7,-2778,3149,-1362,1002.9,40.3,0
"2020-02-08 01:30:53+00",28.4,32.4,,40.6,-3018,3790,-1727,1003.14,40.3,0
"2020-02-08 01:35:53+00",34.0,40.0,,40.6,-2691,2620,-1122,1003.13,40.3,0
"2020-02-08 01:50:53+00",27.8,31.8,,40.5,-3100,3251,-1715,1003.8,40.2,0
"2020-02-08 01:55:53+00",31.0,38.0,,40.3,-1641,233,-122,1003.89,40.2,0
"2020-02-08 02:05:53+00",32.2,36.2,,40.4,-3391,4086,-1784,1003.98,40.2,0
"2020-02-08 02:20:53+00",28.3,33.3,,40.1,-3405,3770,-1821,1004.79,39.8,0
"2020-02-08 02:25:53+00",23.1,28.1,,39.9,-2936,3758,-1793,1005.02,39.7,0
"2020-02-08 02:30:53+00",32.1,36.1,,39.8,-2819,2683,-1122,1005.04,39.6,0
"2020-02-08 02:55:53+00",30.8,35.8,,38.7,-2952,3439,-1569,1006.19,38.4,0
"2020-02-08 03:00:53+00",34.4,39.4,,38.4,-2490,2385,-900,1006.33,38.2,0
"2020-02-08 03:10:53+00",35.9,40.9,,38.2,-3060,3455,-1441,1006.64,37.8,0
"2020-02-08 03:15:53+00",33.2,38.2,,38.2,-2441,2076,-868,1006.76,37.9,0
"2020-02-08 03:20:53+00",27.3,33.3,,38.2,-3113,3974,-1796,1006.94,37.8,0
"2020-02-08 03:25:53+00",34.6,39.6,,38,-2754,2709,-1164,1007,37.7,0
"2020-02-08 03:30:53+00",35.7,38.7,,38,-3513,4158,-1739,1007.1,37.6,0
"2020-02-08 03:35:53+00",27.7,33.7,,37.8,-2806,3729,-1601,1007.37,37.4,0
"2020-02-08 03:40:53+00",29.7,32.7,,37.7,-2905,3354,-1389,1007.62,37.3,0
"2020-02-08 03:45:53+00",32.6,34.6,,37.6,-3207,3661,-1591,1007.69,37.3,0
"2020-02-08 03:50:53+00",28.8,32.8,,37.6,-2992,3794,-1650,1007.74,37.2,0
"2020-02-08 03:55:53+00",32.1,38.1,,37.6,-3062,3145,-1342,1008.03,37.2,0
"2020-02-08 04:00:53+00",25.7,29.7,,37.4,-2810,3710,-1601,1008.38,37,0
"2020-02-08 04:10:53+00",29.1,33.1,,37.1,-2956,3962,-1732,1008.63,36.7,0
"2020-02-08 04:20:53+00",30.9,36.9,,36.7,-2600,3060,-1163,1009.02,36.5,0
"2020-02-08 04:25:53+00",22.9,26.9,,36.7,-2135,2626,-1089,1009.38,36.3,0
"2020-02-08 04:30:53+00",26.2,29.2,,36.9,-2781,3347,-1509,1009.43,36.5,0
"2020-02-08 04:35:53+00",21.4,26.4,,36.9,-1992,2553,-1024,1009.53,36.5,0
"2020-02-08 04:40:53+00",24.2,29.2,,37,-2592,3208,-1450,1009.72,36.5,0
"2020-02-08 04:45:53+00",25.8,29.8,,36.9,-2653,3376,-1508,1009.94,36.5,0
"2020-02-08 04:50:53+00",25.8,30.8,,36.7,-2410,3057,-1256,1010.03,36.4,0
"2020-02-08 04:55:53+00",28.0,31.0,,36.8,-2906,3355,-1487,1010.09,36.3,0
"2020-02-08 05:00:53+00",26.6,30.6,,36.6,-2830,3342,-1504,1010.1,36.3,0
"2020-02-08 05:05:53+00",26.6,30.6,,36.7,-2659,3311,-1451,1010.25,36.3,0
"2020-02-08 05:10:53+00",23.9,26.9,,36.5,-2715,3214,-1530,1010.44,36.1,0
"2020-02-08 05:15:53+00",23.5,25.5,,36.4,-2630,3070,-1420,1010.53,36,0
"2020-02-08 05:20:53+00",25.1,28.1,,36.4,-2491,2908,-1286,1010.71,35.9,0
"2020-02-08 05:30:53+00",32.0,37.0,,36.1,-3174,3725,-1572,1011.02,35.6,0
"2020-02-08 05:35:53+00",29.2,34.2,,35.9,-2639,3116,-1319,1011.27,35.4,0
"2020-02-08 05:40:53+00",30.9,32.9,,35.9,-2887,3338,-1457,1011.51,35.3,0
"2020-02-08 05:45:53+00",23.0,28.0,,35.8,-1976,2265,-968,1011.85,35.2,0
"2020-02-08 05:50:53+00",24.3,26.3,,35.8,-2356,2895,-1246,1012,35.2,0
"2020-02-08 05:55:53+00",23.9,26.9,,35.9,-2549,3330,-1443,1012.08,35.2,0
"2020-02-08 06:00:53+00",27.7,31.7,,35.6,-2439,2774,-1182,1012.12,35,0
"2020-02-08 06:05:53+00",23.6,25.6,,35.5,-2050,2597,-1064,1012.26,34.9,0
"2020-02-08 06:10:53+00",26.1,29.1,,35.4,-2605,3360,-1448,1012.36,34.7,0
"2020-02-08 06:15:53+00",25.6,28.6,,35.3,-2549,3227,-1404,1012.57,34.6,0
"2020-02-08 06:20:53+00",23.7,25.7,,35.3,-2205,2679,-1128,1012.73,34.5,0
"2020-02-08 06:25:53+00",18.2,22.2,,35.3,-1218,1023,-408,1012.94,34.4,0
"2020-02-08 06:30:53+00",22.7,24.7,,35.4,-1707,1560,-705,1013.08,34.6,0
"2020-02-08 06:35:53+00",20.8,23.8,,35.2,-1687,1574,-739,1013.16,34.6,0
"2020-02-08 06:40:53+00",24.8,29.8,,35.2,-1841,1523,-697,1013.25,34.5,0
"2020-02-08 06:45:53+00",22.5,25.5,,35.1,-1656,1355,-628,1013.44,34.4,0
"2020-02-08 06:50:53+00",26.6,29.6,,35.2,-1719,1273,-538,1013.4,34.4,0
"2020-02-08 06:55:53+00",22.7,27.7,,35.2,-1790,1869,-759,1013.49,34.4,0
"2020-02-08 07:00:53+00",24.5,28.5,,35.2,-1680,1888,-807,1013.72,34.4,0
"2020-02-08 07:05:53+00",23.2,28.2,,35.2,-2053,2372,-1020,1013.8,34.4,0
"2020-02-08 07:10:53+00",24.4,28.4,,35.3,-2167,2561,-1088,1013.88,34.4,0
"2020-02-08 07:15:53+00",25.4,28.4,,35.1,-2192,2552,-1080,1014.05,34.3,0
"2020-02-08 07:20:53+00",22.4,25.4,,35.3,-1832,2014,-852,1014.25,34.2,0
"2020-02-08 07:25:53+00",21.6,25.6,,35.3,-1591,1468,-651,1014.23,34.3,0
"2020-02-08 07:30:53+00",22.1,25.1,,35.2,-1633,1495,-682,1014.32,34.3,0
"2020-02-08 07:35:53+00",21.8,23.8,,35.1,-1585,1612,-659,1014.38,34.2,0
"2020-02-08 07:40:53+00",22.9,24.9,,35.2,-1768,1739,-758,1014.5,34.2,0
"2020-02-08 07:45:53+00",20.8,25.8,,35.2,-1600,1488,-662,1014.62,34.2,0
"2020-02-08 07:50:53+00",23.4,26.4,,35.1,-1835,1759,-788,1014.77,34.2,0
"2020-02-08 07:55:53+00",19.0,21.0,,35,-1226,989,-413,1015,34.2,0
"2020-02-08 08:00:53+00",17.1,20.1,,34.8,-1345,1221,-564,1015.06,34.1,0
"2020-02-08 08:05:53+00",19.0,23.0,,34.7,-1294,1002,-457,1015.17,33.9,0
"2020-02-08 08:10:53+00",17.6,20.6,,34.5,-1167,855,-409,1015.28,33.7,0
"2020-02-08 08:15:53+00",18.0,20.0,,34.4,-1206,854,-430,1015.36,33.5,0
"2020-02-08 08:20:53+00",17.4,19.4,,34.3,-1109,759,-358,1015.5,33.4,0
"2020-02-08 08:25:53+00",16.0,18.0,,34.1,-987,578,-299,1015.55,33.3,0
"2020-02-08 08:30:53+00",15.4,18.4,,33.9,-973,549,-307,1015.69,33.1,0
"2020-02-08 08:35:53+00",13.9,15.9,,33.7,-923,598,-319,1015.85,32.9,0
"2020-02-08 08:40:53+00",14.6,16.6,,33.5,-1016,670,-366,1015.98,32.6,0
"2020-02-08 08:45:53+00",13.7,16.7,,33.4,-769,284,-168,1016.21,32.5,0
"2020-02-08 08:50:53+00",14.3,17.3,,33.4,-854,439,-247,1016.37,32.5,0
"2020-02-08 08:55:53+00",14.9,17.9,,33.3,-940,470,-274,1016.29,32.5,0
"2020-02-08 09:00:53+00",14.7,16.7,,33.3,-910,436,-282,1016.55,32.5,0
"2020-02-08 09:05:53+00",17.6,19.6,,33.4,-1035,424,-288,1016.74,32.6,0
"2020-02-08 09:10:53+00",16.6,19.6,,33.3,-996,422,-246,1016.88,32.7,0
"2020-02-08 09:15:53+00",15.2,19.2,,33.3,-933,489,-263,1017.05,32.8,0
"2020-02-08 09:20:53+00",15.1,18.1,,33.3,-939,496,-273,1017.19,32.8,0
"2020-02-08 09:25:53+00",16.3,20.3,,33.4,-1030,586,-301,1017.18,32.9,0
"2020-02-08 09:30:53+00",15.8,18.8,,33.4,-942,460,-272,1017.33,32.9,0
"2020-02-08 09:35:53+00",16.0,18.0,,33.4,-1065,627,-382,1017.57,32.9,0
"2020-02-08 09:40:53+00",16.3,18.3,,33.4,-967,392,-265,1017.71,32.9,0
"2020-02-08 09:45:53+00",15.6,17.6,,33.3,-924,401,-232,1017.94,32.9,0
"2020-02-08 09:50:53+00",19.1,21.1,,33.3,-980,201,-166,1018.25,32.9,0
"2020-02-08 09:55:53+00",16.8,18.8,,33.3,-1006,447,-277,1018.38,32.9,0
"2020-02-08 10:00:53+00",18.5,20.5,,33.3,-1044,432,-247,1018.56,32.8,0
"2020-02-08 10:05:53+00",18.5,21.5,,33.1,-925,179,-120,1018.85,32.8,0
"2020-02-08 10:10:53+00",16.9,18.9,,33,-960,351,-264,1019.09,32.8,0
"2020-02-08 10:15:53+00",17.2,22.2,,33.1,-914,240,-163,1019.15,32.7,0
"2020-02-08 10:20:53+00",17.8,19.8,,33.1,-933,304,-160,1019,32.7,0
"2020-02-08 10:25:53+00",16.1,18.1,,33.1,-864,320,-168,1019.09,32.7,0
"2020-02-08 10:30:53+00",15.1,19.1,,32.9,-866,381,-218,1019.26,32.6,0
"2020-02-08 10:35:53+00",16.0,19.0,,32.9,-984,504,-277,1019.39,32.6,0
"2020-02-08 10:40:53+00",14.9,16.9,,32.7,-901,408,-271,1019.44,32.5,0
"2020-02-08 10:45:53+00",14.9,16.9,,32.7,-836,318,-219,1019.54,32.4,0
"2020-02-08 10:50:53+00",14.2,16.2,,32.6,-761,194,-145,1019.65,32.4,0
"2020-02-08 10:55:53+00",13.7,14.7,,32.6,-795,289,-242,1019.71,32.3,0
"2020-02-08 11:00:53+00",14.7,17.7,,32.6,-781,179,-149,1019.82,32.2,0
"2020-02-08 11:05:53+00",15.6,19.6,,32.7,-820,215,-142,1019.96,32.2,0
"2020-02-08 11:10:53+00",17.0,19.0,,32.8,-867,206,-158,1020.05,32.3,0
"2020-02-08 11:15:53+00",17.1,20.1,,32.8,-876,186,-85,1020.1,32.4,0
"2020-02-08 11:20:53+00",15.4,17.4,,32.8,-783,171,-111,1020.25,32.5,0
"2020-02-08 11:25:53+00",15.4,18.4,,32.6,-768,163,-98,1020.29,32.4,0
"2020-02-08 11:30:53+00",17.0,19.0,,32.5,-812,115,-52,1020.35,32.3,0
"2020-02-08 11:35:53+00",16.8,18.8,,32.5,-788,123,-29,1020.46,32.2,0
"2020-02-08 11:40:53+00",16.7,18.7,,32.5,-787,112,-18,1020.63,32.2,0
"2020-02-08 11:45:53+00",17.1,19.1,,32.6,-811,64,-73,1020.67,32.2,0
"2020-02-08 11:50:53+00",15.8,18.8,,32.7,-782,195,-76,1020.81,32.3,0
"2020-02-08 11:55:53+00",17.6,20.6,,32.6,-816,24,17,1020.94,32.3,0
"2020-02-08 12:00:53+00",14.0,17.0,,32.6,-710,190,-104,1021.1,32.3,0
"2020-02-08 12:05:53+00",13.5,16.5,,32.6,-826,409,-266,1021.17,32.3,0
"2020-02-08 12:10:53+00",16.1,18.1,,32.6,-795,144,-117,1021.31,32.3,0
"2020-02-08 12:15:53+00",16.7,18.7,,32.8,-795,59,-74,1021.3,32.4,0
"2020-02-08 12:20:53+00",15.2,17.2,,32.8,-782,154,-124,1021.39,32.5,0
"2020-02-08 12:25:53+00",16.4,18.4,,33,-825,141,-137,1021.52,32.6,0
"2020-02-08 12:30:53+00",15.4,17.4,,33.1,-807,180,-148,1021.67,32.8,0
"2020-02-08 12:35:53+00",14.6,17.6,,33.1,-857,382,-238,1021.85,33,0
"2020-02-08 12:40:53+00",14.5,16.5,,33.1,-760,141,-148,1022.09,33.5,0
"2020-02-08 12:45:53+00",13.5,17.5,,33.1,-803,265,-244,1022.1,34,0
"2020-02-08 12:50:53+00",14.2,17.2,,33.1,-823,224,-233,1022.24,34.6,0
"2020-02-08 12:55:53+00",15.0,19.0,,33.3,-830,201,-195,1022.21,35.1,0
"2020-02-08 13:00:53+00",17.8,20.8,,33.4,-1189,674,-436,1022.3,35.5,0
"2020-02-08 13:05:53+00",16.2,18.2,,33.5,-940,343,-277,1022.36,35.9,0
"2020-02-08 13:10:53+00",15.6,18.6,,33.6,-804,176,-156,1022.47,36.2,0
"2020-02-08 13:15:53+00",13.9,17.9,,33.8,-659,61,-59,1022.62,36.7,0
"2020-02-08 13:20:53+00",14.1,18.1,,33.9,-780,181,-162,1022.67,37.1,0.5
"2020-02-08 13:25:53+00",16.5,18.5,,33.9,-1083,702,-371,1022.67,37.1,0.4
"2020-02-08 13:30:53+00",14.5,16.5,,34.2,-794,300,-133,1022.63,37.3,0.9
"2020-02-08 13:35:53+00",13.8,15.8,,34.3,-749,207,-139,1022.68,37.7,6.6
"2020-02-08 13:40:53+00",15.9,17.9,,34.3,-838,236,-164,1022.69,37.9,12.7
"2020-02-08 13:45:53+00",15.5,19.5,,34.4,-891,381,-196,1022.65,37.9,17.7
"2020-02-08 13:50:53+00",14.0,16.0,,34.7,-686,169,-21,1022.76,37.9,15.9
"2020-02-08 13:55:53+00",15.0,18.0,,34.8,-762,300,-77,1022.74,37.9,42
"2020-02-08 14:00:53+00",16.4,18.4,,34.9,-873,322,-167,1022.85,38.2,47.1
"2020-02-08 14:05:53+00",15.8,17.8,,35,-863,289,-174,1022.88,38.3,57.3
"2020-02-08 14:10:53+00",16.9,18.9,,35.2,-960,388,-254,1022.95,38.7,63.3
"2020-02-08 14:15:53+00",16.4,17.4,,35.5,-964,460,-263,1022.73,39.1,71.7
"2020-02-08 14:20:53+00",16.5,18.5,,35.4,-1002,558,-308,1022.62,38.8,74.1
"2020-02-08 14:25:53+00",17.0,18.0,,35.4,-966,352,-233,1022.68,39.1,74.7
"2020-02-08 14:30:53+00",14.9,20.9,,35.7,-855,408,-184,1022.65,39.1,86.4
"2020-02-08 14:35:53+00",16.8,20.8,,35.8,-1044,569,-266,1022.77,39,94.7
"2020-02-08 14:40:53+00",16.3,19.3,,35.8,-858,554,-156,1022.78,39,98.4
"2020-02-08 14:45:53+00",16.7,17.7,,35.9,-931,471,-203,1022.75,39.1,89.9
"2020-02-08 14:50:53+00",18.6,21.6,,36.4,-1468,1217,-588,1022.79,39.3,109.5
"2020-02-08 14:55:53+00",16.4,18.4,,36.2,-971,535,-248,1022.86,39.3,108.4
"2020-02-08 15:00:53+00",20.0,22.0,,36.3,-1768,1550,-817,1022.82,39.5,120.4
"2020-02-08 15:05:53+00",16.4,17.4,,36.5,-920,489,-221,1022.9,39.4,125
"2020-02-08 15:10:53+00",15.9,19.9,,37.2,-954,435,-233,1022.9,40.1,131
"2020-02-08 15:15:53+00",17.5,20.5,,37.3,-1114,750,-320,1022.91,40.6,135.3
"2020-02-08 15:20:53+00",17.1,19.1,,36.8,-939,426,-196,1023.09,40.6,139.9
"2020-02-08 15:25:53+00",16.4,19.4,,37.2,-974,550,-239,1022.99,40.5,142.1
"2020-02-08 15:30:53+00",15.6,18.6,,37.6,-896,391,-176,1022.99,40.7,148.3
"2020-02-08 15:35:53+00",17.8,21.8,,37.7,-1215,963,-419,1023.04,41,155.4
"2020-02-08 15:40:53+00",16.6,18.6,,37.8,-968,506,-220,1023.09,41.2,159.9
"2020-02-08 15:45:53+00",15.6,18.6,,38,-778,455,-104,1023.07,41.5,164.4
"2020-02-08 15:50:53+00",13.4,14.4,,38.1,-638,281,-15,1023,42,171.4
"2020-02-08 15:55:53+00",13.0,15.0,,38.5,-716,265,-73,1023.07,42.7,182.1
"2020-02-08 16:00:53+00",16.5,19.5,,38.5,-976,541,-216,1023.06,43.1,186.3
"2020-02-08 16:05:53+00",18.5,20.5,,38.9,-1188,783,-330,1023.07,43.5,191.4
"2020-02-08 16:10:53+00",15.3,17.3,,38.9,-882,317,-214,1023.12,43.6,201.8
"2020-02-08 16:15:53+00",16.1,18.1,,38.8,-1063,489,-368,1023.15,43.7,114.9
"2020-02-08 16:20:53+00",17.8,19.8,,38.7,-952,261,-172,1023.1,43.9,0
"2020-02-08 16:25:53+00",15.1,17.1,,38.8,-709,244,20,1023.01,43.9,197.2
"2020-02-08 16:30:53+00",19.7,21.7,,38.9,-1406,1215,-533,1022.96,43.3,209.4
"2020-02-08 16:35:53+00",18.5,20.5,,38.8,-1049,661,-218,1022.99,42.9,192
"2020-02-08 16:40:53+00",15.1,17.1,,38.9,-751,286,-66,1023.11,43.1,212.9
"2020-02-08 16:45:53+00",15.1,17.1,,39.1,-700,238,-10,1022.94,43.5,191.2
"2020-02-08 16:50:53+00",13.5,16.5,,39.5,-726,236,-85,1022.93,43.9,151.7
"2020-02-08 16:55:53+00",17.0,19.0,,39.4,-815,303,-30,1022.88,44,184.8
"2020-02-08 17:00:53+00",15.7,16.7,,39.4,-721,423,-58,1022.78,43.8,204.1
"2020-02-08 17:05:53+00",16.3,19.3,,39.7,-979,408,-295,1022.69,43.8,189.3
"2020-02-08 17:10:53+00",17.2,19.2,,39.9,-793,293,-6,1022.63,44.5,185.4
"2020-02-08 17:15:53+00",17.2,19.2,,39.7,-819,332,-42,1022.51,44.4,181
"2020-02-08 17:20:53+00",16.6,18.6,,39.5,-799,332,-30,1022.52,43.8,30.3
"2020-02-08 17:25:53+00",13.5,17.5,,39.6,-640,207,0,1022.57,43.8,197.5
"2020-02-08 17:30:53+00",13.0,15.0,,39.6,-587,124,36,1022.58,43.9,190.7
"2020-02-08 17:35:53+00",11.8,14.8,,39.8,-542,166,-15,1022.35,44.3,62
"2020-02-08 17:40:53+00",11.5,13.5,,40,-170,-413,373,1022.32,44.3,0
"2020-02-08 17:45:53+00",16.3,22.3,,39.8,-922,469,-204,1022.18,43.2,0
"2020-02-08 17:50:53+00",14.6,17.6,,40.1,-856,406,-161,1022.33,43,181.3
"2020-02-08 17:55:53+00",14.5,16.5,,39.9,-319,-315,336,1022.35,43.2,1.2
"2020-02-08 18:00:53+00",16.8,19.8,,39.9,-860,314,-101,1022.42,42.6,0
"2020-02-08 18:05:53+00",14.6,16.6,,40.2,-708,261,-26,1022.49,42.1,94.2
"2020-02-08 18:10:53+00",15.8,16.8,,40.1,-751,150,-42,1022.48,42.1,5
"2020-02-08 18:15:53+00",12.7,14.7,,40.1,-597,76,-14,1022.55,42.3,0.4
"2020-02-08 18:20:53+00",15.4,17.4,,40.9,-1171,872,-466,1022.49,42.9,168.4
"2020-02-08 18:25:53+00",16.8,18.8,,41.1,-970,489,-245,1022.51,44.2,137.3
"2020-02-08 18:30:53+00",14.1,18.1,,40.9,-696,142,-42,1022.44,44.4,0
"2020-02-08 18:35:53+00",15.8,17.8,,41.1,-789,327,-63,1022.55,43.9,54.1
"2020-02-08 18:40:53+00",14.3,16.3,,40.9,-606,166,60,1022.43,43.6,0
"2020-02-08 18:45:53+00",15.8,17.8,,41.4,-886,633,-175,1022.19,43.8,160.4
"2020-02-08 18:50:53+00",15.2,17.2,,41.7,-809,590,-164,1022.02,44.6,157
"2020-02-08 18:55:53+00",15.2,17.2,,42.1,-937,587,-279,1021.87,45.2,146.4
"2020-02-08 19:00:53+00",14.4,15.4,,41.6,-821,445,-182,1021.65,46,135.7
"2020-02-08 19:05:53+00",14.4,17.4,,41.7,-837,527,-197,1021.49,46.5,142.5
"2020-02-08 19:10:53+00",14.5,16.5,,41.5,1128,-2338,1599,1021.5,45.9,0
"2020-02-08 19:15:53+00",14.8,15.8,,41.2,-706,295,-37,1021.63,44.8,43.1
"2020-02-08 19:20:53+00",14.7,16.7,,41,800,-2236,1432,1021.67,43.7,0
"2020-02-08 19:25:53+00",13.5,14.5,,41.3,1472,-3300,2006,1021.75,43.6,0
"2020-02-08 19:30:53+00",13.2,16.2,,41.5,-639,397,-67,1021.75,44.1,76.7
"2020-02-08 19:35:53+00",15.6,17.6,,41.7,-337,-279,358,1021.68,44.5,38.8
"2020-02-08 19:40:53+00",16.1,18.1,,41.8,-888,686,-193,1021.67,44.6,80.9
"2020-02-08 19:45:53+00",13.4,15.4,,41.8,-625,350,-44,1021.77,44.8,66.8
"2020-02-08 19:50:53+00",13.8,15.8,,42,-706,598,-134,1021.86,45.1,70.8
"2020-02-08 19:55:53+00",15.1,17.1,,41.7,1136,-2804,1769,1021.99,45.2,0
"2020-02-08 20:00:53+00",16.4,18.4,,41.6,-267,-623,515,1022.19,44.8,0
"2020-02-08 20:05:53+00",15.4,17.4,,41.4,-747,397,-37,1022.26,43.9,32.2
"2020-02-08 20:10:53+00",15.1,18.1,,41.5,-724,411,-61,1022.4,43.6,22.8
"2020-02-08 20:15:53+00",16.3,18.3,,41.3,-749,283,-20,1022.43,43.2,2.2
"2020-02-08 20:25:53+00",16.2,18.2,,41.7,-782,372,-46,1022.63,42.8,3.1
"2020-02-08 20:30:53+00",13.9,15.9,,41.9,-596,229,56,1022.76,43.5,1.8
"2020-02-08 20:35:53+00",14.9,17.9,,41.8,-19,-917,708,1022.63,43.9,0
"2020-02-08 20:40:53+00",16.1,18.1,,41.9,-840,361,-120,1022.78,44,0
"2020-02-08 20:45:53+00",14.1,16.1,,42,-658,266,3,1022.93,44.4,0
"2020-02-08 20:50:53+00",14.2,16.2,,42.1,-646,276,25,1022.94,44.6,0
"2020-02-08 20:55:53+00",14.6,17.6,,41.6,-757,242,-97,1023.05,44.1,0
"2020-02-08 21:00:53+00",14.7,16.7,,41.7,755,-2180,1396,1023.13,43.8,0
"2020-02-08 21:05:53+00",17.6,18.6,,41.4,119,-1352,915,1023.15,43.2,0
"2020-02-08 21:10:53+00",16.5,18.5,,41.5,-685,121,84,1023.23,42.9,0
"2020-02-08 21:15:53+00",17.2,18.2,,41.5,389,-1749,1158,1023.27,43,0
"2020-02-08 21:20:53+00",16.3,18.3,,41.4,1115,-2838,1794,1023.31,42.9,0
"2020-02-08 21:25:53+00",14.9,15.9,,41.4,720,-2223,1400,1023.4,42.8,0
"2020-02-08 21:30:53+00",14.2,16.2,,41.4,1559,-3681,2165,1023.3,42.9,0
"2020-02-08 21:35:53+00",12.6,13.6,,41.4,1461,-3268,1949,1023.28,42.8,0
"2020-02-08 21:40:53+00",12.5,14.5,,41.4,1522,-3402,2042,1023.39,42.7,0
"2020-02-08 21:45:53+00",13.3,14.3,,41.2,1632,-3595,2118,1023.33,42.6,0
"2020-02-08 21:50:53+00",12.7,14.7,,41.2,1251,-2946,1742,1023.48,42.5,0
"2020-02-08 21:55:53+00",11.3,12.3,,41.1,1375,-3014,1810,1023.51,42.3,0
"2020-02-08 22:00:53+00",11.3,12.3,,41,1586,-3459,2039,1023.72,41.9,0
"2020-02-08 22:05:53+00",9.6,10.6,,40.9,646,-1674,1054,1024.01,41.7,0
"2020-02-08 22:10:53+00",9.8,10.8,,41,614,-1661,1023,1024.1,41.2,0
"2020-02-08 22:15:53+00",10.2,11.2,,40.9,678,-1775,1099,1024.16,40.8,0
"2020-02-08 22:20:53+00",10.1,12.1,,40.9,644,-1736,1063,1024.41,40.4,0
"2020-02-08 22:25:53+00",10.4,11.4,,40.7,652,-1812,1112,1024.45,40.1,0
"2020-02-08 22:30:53+00",10.3,11.3,,40.5,681,-1870,1124,1024.51,39.8,0
"2020-02-08 22:35:53+00",9.5,10.5,,40.2,557,-1662,976,1024.63,39.4,0
"2020-02-08 22:40:53+00",9.7,10.7,,40.2,459,-1518,885,1024.88,39,0
"2020-02-08 22:45:53+00",10.5,12.5,,40.2,837,-2276,1279,1024.96,38.8,0
"2020-02-08 22:50:53+00",9.5,10.5,,40.1,528,-1676,927,1025.2,38.6,0
"2020-02-08 22:55:53+00",10.2,11.2,,40.1,934,-2422,1346,1025.14,38.4,0
"2020-02-08 23:00:53+00",8.9,9.9,,40,445,-1470,821,1025.31,38.2,0
"2020-02-08 23:05:53+00",8.3,9.3,,40.1,350,-1265,705,1025.43,38,0
"2020-02-08 23:10:53+00",8.7,9.7,,40.1,311,-1228,681,1025.58,37.8,0
"2020-02-08 23:15:53+00",9.0,10.0,,40,377,-1370,759,1025.63,37.5,0
"2020-02-08 23:20:53+00",9.9,10.9,,39.9,474,-1620,876,1025.84,37.3,0
"2020-02-08 23:25:53+00",9.7,10.7,,39.9,349,-1389,746,1025.97,37.2,0
"2020-02-08 23:30:53+00",9.6,10.6,,39.8,258,-1219,653,1026.03,37.1,0
"2020-02-08 23:35:53+00",8.0,9.0,,39.6,23,-725,362,1026.06,37,0
"2020-02-08 23:40:53+00",8.2,9.2,,39.8,-11,-631,327,1026.18,36.7,0
"2020-02-08 23:45:53+00",8.2,9.2,,39.6,-2,-650,341,1026.24,36.5,0
"2020-02-08 23:50:53+00",8.0,8.0,,39.4,25,-681,366,1026.41,36.3,0
"2020-02-08 23:55:53+00",8.5,9.5,,39.4,193,-1024,541,1026.34,36.2,0
